Regional Weather Roundup
Issued by NWS Midland/Odessa, TX

Skip options and go directly to product.
Home | Oldest Version | Previous Version | Current Version | All | Graphics & Text | Save Text | Print | Product List | Glossary On

Skip product version selection by date and time.   
678
ASUS44 KMAF 201810
RWRMAF
MIDLAND AREA WEATHER ROUNDUP
NATIONAL WEATHER SERVICE MIDLAND TX
100 PM CDT SUN APR 20 2014

...IN SOUTHWEST TEXAS AND SOUTHEAST NEW MEXICO...

CITY           SKY/WX    TMP DP  RH WIND       PRES   REMARKS
ALPINE         SUNNY     74  46  36 W6        30.19F
ANDREWS        PTSUNNY   67  57  69 S13       30.09F
ARTESIA        MOSUNNY   73  43  33 SW9G22    30.07F
BIG SPRING     CLOUDY    65  60  85 S8        30.12F
CARLSBAD       SUNNY     71  53  52 SE7       30.07F
DRYDEN           N/A     74  62  66 NE3       30.07F
FORT STOCKTON  SUNNY     74  56  53 VRB5      30.09F
GUAD PASS      SUNNY     65  48  54 W23       30.20S
HOBBS          MOSUNNY   72  50  46 SW9G16    30.10F
MARFA          SUNNY     72  43  35 SW9       30.18F
MIDLAND AIRPK  CLOUDY    69  60  73 SW12      30.10F
MIDLAND INTL   CLOUDY    68  60  75 SW13      30.10F
ODESSA         PTSUNNY   67  58  72 SW9       30.11F
PECOS          MOSUNNY   70  58  64 CALM      30.07F
PRESIDIO       FAIR      77  51  41 W3        30.08F
SEMINOLE       PTSUNNY   67  56  67 SW10      30.11S
SNYDER         CLOUDY    63  59  89 S9        30.10F
WINK           SUNNY     72  56  57 W7        30.07F
$$
...OTHER STATIONS IN TEXAS...

CITY           SKY/WX    TMP DP  RH WIND       PRES   REMARKS
ABILENE        LGT RAIN  64  62  93 S8        30.09F
AMARILLO       MOSUNNY   72  48  42 S13G24    30.03F
AUSTIN         CLOUDY    74  62  66 SE13      30.12F
BROWNSVILLE    PTSUNNY   84  66  54 SE20      30.08F
CORPUS CHRISTI CLOUDY    78  63  59 SE16G24   30.11F
DALLAS FTW     CLOUDY    79  52  38 S20G25    30.11F
DEL RIO        CLOUDY    69  66  90 SE13      30.07F
EL PASO        MOSUNNY   70  42  36 SW10G18   30.14F
HOUSTON INT    MOSUNNY   78  55  44 SE13G22   30.15F
LUBBOCK        PTSUNNY   70  56  61 SW20G28   30.06F
SAN ANGELO     CLOUDY    70  61  73 SW16      30.09F
SAN ANTONIO    CLOUDY    70  64  81 SE10      30.13F
WACO           CLOUDY    71  63  75 S9        30.14S
WICHITA FALLS  NOT AVBL
$$
...OTHER LOCATIONS IN NEW MEXICO...

CITY           SKY/WX    TMP DP  RH WIND       PRES   REMARKS
ALAMAGORDO     MOSUNNY   64  45  48 W5        30.17F
ALBUQUERQUE    PTSUNNY   64  39  39 SE5       30.15F
CANNON AFB     PTSUNNY   67  42  39 W15       30.06S
CLOVIS           N/A     66  45  45 W23G30    30.08F
HOLLOMAN AFB   MOSUNNY   66  45  46 S5        30.15F
ROSWELL        SUNNY     74  39  28 MISG      30.05F
RUIDOSO        MOSUNNY   57  39  51 NW14G24   30.22S
SANTA FE       PTSUNNY   61  40  45 SW8       30.14F
TRUTH OR CONSE SUNNY     66  42  41 S12G17    30.15F
TUCUMCARI      PTSUNNY   69  46  43 NW10G17   30.02F
$$

USA.gov is the U.S. government's official web portal to all federal, state and local government web resources and services.